Kenosha, WI

10:26 AM CDT on June 26, 2017 (GMT -0500)
Kenosha Regional

Weather History for KENW - October, 2013

Change the Weather History Date:

Saturday, October 5, 2013

  Actual Average Record
Temperature  
Mean Temperature 71 °F -  
Max Temperature 81 °F 65 °F 86 °F (1997)
Min Temperature 62 °F 45 °F 26 °F (2004)
Cooling Degree Days 6    
Growing Degree Days 21 (Base 50)    
Moisture  
Dew Point 65 °F    
Average Humidity 90    
Maximum Humidity 100    
Minimum Humidity 69    
Precipitation  
Precipitation 1.55 in - - ()
Sea Level Pressure  
Sea Level Pressure 29.86 in    
Wind  
Wind Speed 5 mph (SSE)    
Max Wind Speed 22 mph    
Max Gust Speed 28 mph    
Visibility 4 miles    
Events Fog , Rain    
Averages and records for this station are not official NWS values.
T = Trace of Precipitation, MM = Missing Value Source: NWS Daily Summary

Daily Weather History Graph

Daily Weather History Graph

Search for Another Location

Airport or City:

Trip Planner

Search our weather history database for the weather conditions in past years. The results will help you decide how hot, cold, wet, or windy it might be!

Date:

Astronomy

Oct. 05, 2013 Rise Set
Actual Time 6:53 AM CDT 6:25 PM CDT
Civil Twilight 6:25 AM CDT 6:53 PM CDT
Nautical Twilight 5:52 AM CDT 7:26 PM CDT
Astronomical Twilight 5:19 AM CDT 7:59 PM CDT
Moon 7:34 AM CDT (10/5) 6:42 PM CDT (10/5)
Length of Visible Light 12h 28m
Length of Day
11h 32m
New Moon, 1% of the Moon is Illuminated
Oct 5
New Moon
Oct 11
First Quarter
Oct 18
Full
Oct 26
Last Quarter
Nov 3
New

Hourly Weather History & Observations

Time (CDT) Temp. Heat Index Dew Point Humidity Pressure Visibility Wind Dir Wind Speed Gust Speed Precip Events Conditions
12:23 AM 64.4 °F - 62.6 °F 94% 29.97 in 2.5 mi ENE 4.6 mph - N/A   Mostly Cloudy
12:53 AM 64.0 °F - 63.0 °F 96% 29.95 in 1.8 mi Calm Calm - N/A   Overcast
1:08 AM 64.4 °F - 62.6 °F 94% 29.95 in 0.5 mi ENE 4.6 mph - N/A Fog Fog
1:26 AM 62.6 °F - 62.6 °F 100% 29.95 in 0.2 mi ENE 5.8 mph - N/A Fog Fog
1:53 AM 63.0 °F - 62.1 °F 97% 29.94 in 0.2 mi East 3.5 mph - N/A Fog Fog
2:53 AM 64.0 °F - 63.0 °F 96% 29.94 in 0.2 mi NNE 3.5 mph - N/A Fog Fog
3:53 AM 64.0 °F - 63.0 °F 96% 29.93 in 0.2 mi Calm Calm - N/A Fog Fog
4:53 AM 63.0 °F - 62.1 °F 97% 29.92 in 0.2 mi Calm Calm - N/A Fog Fog
5:53 AM 63.0 °F - 62.1 °F 97% 29.92 in 0.2 mi Calm Calm - N/A Fog Fog
6:53 AM 63.0 °F - 62.1 °F 97% 29.91 in 0.1 mi Calm Calm - 0.01 in Fog Fog
7:35 AM 62.6 °F - 62.6 °F 100% 29.92 in 0.5 mi Calm Calm - N/A Fog Fog
7:51 AM 64.4 °F - 64.4 °F 100% 29.92 in 0.8 mi Calm Calm - N/A   Scattered Clouds
7:53 AM 64.9 °F - 64.0 °F 97% 29.91 in 0.8 mi Calm Calm - N/A   Mostly Cloudy
8:21 AM 66.2 °F - 64.4 °F 94% 29.92 in 0.8 mi Calm Calm - N/A   Overcast
8:53 AM 66.9 °F - 64.9 °F 93% 29.91 in 0.8 mi Calm Calm - N/A   Overcast
9:53 AM 72.0 °F - 69.1 °F 91% 29.90 in 0.8 mi SSW 6.9 mph - N/A   Mostly Cloudy
10:05 AM 73.4 °F - 69.8 °F 88% 29.91 in 1.5 mi SW 9.2 mph - N/A   Mostly Cloudy
10:27 AM 73.4 °F - 69.8 °F 88% 29.91 in 2.5 mi SSW 9.2 mph - N/A   Haze
10:53 AM 73.9 °F - 69.1 °F 85% 29.90 in 4.0 mi SW 5.8 mph - N/A   Haze
11:11 AM 75.2 °F - 69.8 °F 83% 29.90 in 5.0 mi SW 4.6 mph - N/A   Haze
11:53 AM 75.9 °F - 70.0 °F 82% 29.88 in 5.0 mi SSE 4.6 mph - N/A   Haze
12:53 PM 75.9 °F - 69.1 °F 79% 29.87 in 6.0 mi SE 8.1 mph - N/A   Haze
1:53 PM 80.1 °F 82.9 °F 69.1 °F 69% 29.84 in 8.0 mi SSW 12.7 mph - N/A   Mostly Cloudy
2:46 PM 78.8 °F - 68.0 °F 69% 29.83 in 7.0 mi SW 5.8 mph - N/A   Mostly Cloudy
2:53 PM 78.1 °F - 68.0 °F 71% 29.82 in 7.0 mi West 8.1 mph - N/A   Overcast
3:53 PM 73.0 °F - 64.0 °F 73% 29.81 in 10.0 mi NNE 8.1 mph - N/A   Overcast
4:00 PM 71.6 °F - 62.6 °F 73% 29.81 in 10.0 mi NE 10.4 mph - N/A   Overcast
4:46 PM 69.8 °F - 66.2 °F 88% 29.81 in 5.0 mi ENE 11.5 mph - N/A   Mostly Cloudy
4:53 PM 69.1 °F - 64.9 °F 87% 29.81 in 6.0 mi ENE 8.1 mph - N/A Rain Light Rain
5:09 PM 68.0 °F - 64.4 °F 88% 29.82 in 6.0 mi ENE 5.8 mph - 0.00 in Rain Light Rain
5:23 PM 68.0 °F - 64.4 °F 88% 29.86 in 2.0 mi SSE 13.8 mph - 0.25 in Rain Heavy Rain
5:25 PM 68.0 °F - 64.4 °F 88% 29.85 in 0.5 mi SE 21.9 mph 27.6 mph 0.34 in Fog , Rain Heavy Rain
5:38 PM 66.2 °F - 64.4 °F 94% 29.84 in 0.5 mi SE 19.6 mph 26.5 mph 0.90 in Fog , Rain Heavy Rain
5:46 PM 66.2 °F - 64.4 °F 94% 29.84 in 1.0 mi SSE 11.5 mph - 1.04 in Rain Heavy Rain
5:53 PM 66.9 °F - 64.0 °F 90% 29.83 in 2.5 mi SSE 8.1 mph - 1.06 in Rain Rain
6:00 PM 66.2 °F - 64.4 °F 94% 29.83 in 1.5 mi SE 5.8 mph - 0.03 in Rain Heavy Rain
6:08 PM 66.2 °F - 64.4 °F 94% 29.84 in 3.0 mi South 3.5 mph - 0.04 in Rain Light Rain
6:20 PM 66.2 °F - 64.4 °F 94% 29.83 in 1.5 mi Calm Calm - 0.09 in Rain Rain
6:26 PM 66.2 °F - 64.4 °F 94% 29.82 in 8.0 mi East 9.2 mph - 0.09 in Rain Light Rain
6:53 PM 66.9 °F - 64.0 °F 90% 29.81 in 8.0 mi SE 6.9 mph - 0.09 in   Mostly Cloudy
7:53 PM 66.0 °F - 64.0 °F 93% 29.80 in 10.0 mi SE 3.5 mph - N/A   Clear
8:53 PM 66.0 °F - 64.0 °F 93% 29.79 in 10.0 mi South 3.5 mph - 0.01 in   Mostly Cloudy
9:53 PM 66.9 °F - 64.9 °F 93% 29.78 in 6.0 mi South 3.5 mph - 0.00 in Rain Light Rain
10:05 PM 66.2 °F - 64.4 °F 94% 29.79 in 2.5 mi SW 3.5 mph - 0.02 in Rain Heavy Rain
10:09 PM 66.2 °F - 64.4 °F 94% 29.79 in 1.8 mi SW 3.5 mph - 0.03 in Rain Heavy Rain
10:20 PM 66.2 °F - 64.4 °F 94% 29.80 in 3.0 mi West 5.8 mph - 0.05 in Rain Light Rain
10:33 PM 66.2 °F - 62.6 °F 88% 29.79 in 1.8 mi WSW 9.2 mph - 0.12 in Rain Heavy Rain
10:43 PM 64.4 °F - 62.6 °F 94% 29.79 in 0.8 mi WSW 8.1 mph - 0.36 in Rain Heavy Rain
10:50 PM 66.2 °F - 62.6 °F 88% 29.79 in 2.5 mi WSW 6.9 mph - 0.36 in Rain Light Rain
10:53 PM 64.9 °F - 64.0 °F 97% 29.78 in 4.0 mi WSW 6.9 mph - 0.37 in Rain Light Rain
11:11 PM 66.2 °F - 64.4 °F 94% 29.77 in 10.0 mi SSW 3.5 mph - 0.01 in   Overcast
11:53 PM 66.0 °F - 63.0 °F 90% 29.74 in 10.0 mi SW 5.8 mph - 0.01 in   Mostly Cloudy